Change the Weather History Date:

Monday, December 30, 2013

  Actual Average Record
Temperature  
Mean Temperature 58 °F -  
Max Temperature 62 °F - - ()
Min Temperature 55 °F - - ()
Degree Days  
Heating Degree Days 6    
Growing Degree Days 8 (Base 50)    
Moisture  
Dew Point 48 °F    
Average Humidity 65    
Maximum Humidity 82    
Minimum Humidity 48    
Precipitation  
Precipitation 0.00 in - - ()
Sea Level Pressure  
Sea Level Pressure 30.19 in    
Wind  
Wind Speed 9 mph (NE)    
Max Wind Speed 18 mph    
Max Gust Speed 17 mph    
Visibility 9 miles    
Events      
T = Trace of Precipitation, MM = Missing Value Source: NWS Daily Summary

Daily Weather History Graph

Daily Weather History Graph

Search for Another Location

Airport or City:

Trip Planner

Search our weather history database for the weather conditions in past years. The results will help you decide how hot, cold, wet, or windy it might be!

Date:

Astronomy

Dec. 30, 2013 Rise Set
Actual Time 7:03 AM CST 5:25 PM CST
Civil Twilight 6:37 AM CST 5:51 PM CST
Nautical Twilight 6:08 AM CST 6:20 PM CST
Astronomical Twilight 5:39 AM CST 6:49 PM CST
Moon 4:57 AM CST (12/30) 3:55 PM CST (12/30)
Length of Visible Light 11h 13m
Length of Day
10h 21m
Waning Crescent, 4% of the Moon is Illuminated
Dec 30
Waning Crescent
Jan 1
New
Jan 7
First Quarter
Jan 15
Full
Jan 23
Last Quarter

Hourly Weather History & Observations

Time (CST) Temp. Dew Point Humidity Pressure Visibility Wind Dir Wind Speed Gust Speed Precip Events Conditions
12:15 AM 62.6 °F 44.6 °F 52% 30.11 in 10.0 mi East 8.1 mph - N/A   Mostly Cloudy
12:35 AM 62.6 °F 44.6 °F 52% 30.11 in 10.0 mi East 8.1 mph - N/A   Mostly Cloudy
12:55 AM 62.6 °F 44.6 °F 52% 30.12 in 10.0 mi East 6.9 mph - N/A   Mostly Cloudy
1:15 AM 62.6 °F 42.8 °F 48% 30.11 in 10.0 mi ENE 8.1 mph - N/A   Mostly Cloudy
1:35 AM 62.6 °F 44.6 °F 52% 30.11 in 10.0 mi East 6.9 mph - N/A   Mostly Cloudy
1:55 AM 62.6 °F 42.8 °F 48% 30.10 in 10.0 mi East 9.2 mph - N/A   Mostly Cloudy
2:15 AM 62.6 °F 44.6 °F 52% 30.08 in 10.0 mi East 11.5 mph - N/A   Clear
2:35 AM 62.6 °F 42.8 °F 48% 30.08 in 10.0 mi East 10.4 mph - N/A   Clear
2:55 AM 62.6 °F 42.8 °F 48% 30.09 in 10.0 mi ENE 9.2 mph - N/A   Clear
3:15 AM 62.6 °F 42.8 °F 48% 30.10 in 10.0 mi ENE 6.9 mph 13.8 mph N/A   Partly Cloudy
3:35 AM 62.6 °F 44.6 °F 52% 30.11 in 10.0 mi NE 6.9 mph - N/A   Mostly Cloudy
3:55 AM 62.6 °F 44.6 °F 52% 30.10 in 10.0 mi NE 8.1 mph - N/A   Overcast
4:15 AM 62.6 °F 42.8 °F 48% 30.10 in 10.0 mi NE 6.9 mph - N/A   Mostly Cloudy
4:35 AM 62.6 °F 42.8 °F 48% 30.11 in 10.0 mi NE 6.9 mph - N/A   Mostly Cloudy
4:55 AM 62.6 °F 42.8 °F 48% 30.10 in 10.0 mi NNE 6.9 mph - N/A   Partly Cloudy
5:15 AM 62.6 °F 42.8 °F 48% 30.12 in 10.0 mi NNE 8.1 mph - N/A   Scattered Clouds
5:35 AM 62.6 °F 42.8 °F 48% 30.12 in 10.0 mi NNE 6.9 mph - N/A   Overcast
5:55 AM 62.6 °F 44.6 °F 52% 30.13 in 10.0 mi NE 6.9 mph - N/A   Overcast
6:15 AM 62.6 °F 44.6 °F 52% 30.12 in 10.0 mi NE 5.8 mph - N/A   Overcast
6:35 AM 62.6 °F 48.2 °F 59% 30.13 in 10.0 mi NNE 10.4 mph - N/A   Mostly Cloudy
6:55 AM 62.6 °F 48.2 °F 59% 30.13 in 10.0 mi NE 8.1 mph - N/A   Clear
7:15 AM 62.6 °F 50.0 °F 63% 30.14 in 10.0 mi NNE 9.2 mph - N/A   Clear
7:35 AM 62.6 °F 50.0 °F 63% 30.16 in 10.0 mi NE 10.4 mph - N/A   Clear
7:55 AM 60.8 °F 50.0 °F 68% 30.17 in 10.0 mi NE 6.9 mph - N/A   Clear
8:15 AM 60.8 °F 50.0 °F 68% 30.19 in 10.0 mi NE 8.1 mph - N/A   Clear
8:35 AM 60.8 °F 50.0 °F 68% 30.21 in 10.0 mi NE 9.2 mph - N/A   Clear
8:55 AM 60.8 °F 50.0 °F 68% 30.22 in 10.0 mi NNE 11.5 mph - N/A   Clear
9:15 AM 60.8 °F 48.2 °F 63% 30.22 in 10.0 mi ENE 8.1 mph - N/A   Clear
9:35 AM 60.8 °F 48.2 °F 63% 30.21 in 10.0 mi ENE 9.2 mph - N/A   Clear
9:55 AM 60.8 °F 48.2 °F 63% 30.21 in 10.0 mi East 10.4 mph - N/A   Clear
10:15 AM 60.8 °F 50.0 °F 68% 30.22 in 10.0 mi East 8.1 mph - N/A   Clear
10:35 AM 62.6 °F 50.0 °F 63% 30.23 in 10.0 mi NE 6.9 mph - N/A   Clear
10:55 AM 60.8 °F 50.0 °F 68% 30.23 in 9.0 mi NE 6.9 mph - N/A   Clear
11:15 AM 60.8 °F 50.0 °F 68% 30.21 in 6.0 mi NE 6.9 mph - N/A   Haze
11:35 AM 60.8 °F 48.2 °F 63% 30.21 in 8.0 mi NNE 8.1 mph - N/A   Clear
11:55 AM 60.8 °F 48.2 °F 63% 30.20 in 10.0 mi NE 6.9 mph - N/A   Clear
12:15 PM 60.8 °F 48.2 °F 63% 30.19 in 7.0 mi East 6.9 mph - N/A   Clear
12:35 PM 59.0 °F 48.2 °F 67% 30.16 in 6.0 mi East 9.2 mph - N/A   Haze
12:55 PM 59.0 °F 48.2 °F 67% 30.16 in 6.0 mi East 5.8 mph - N/A   Haze
1:15 PM 59.0 °F 48.2 °F 67% 30.16 in 8.0 mi Calm Calm - N/A   Clear
1:35 PM 59.0 °F 48.2 °F 67% 30.16 in 9.0 mi ENE 4.6 mph - N/A   Clear
1:55 PM 59.0 °F 48.2 °F 67% 30.17 in 6.0 mi NNE 8.1 mph - N/A   Haze
2:15 PM 59.0 °F 48.2 °F 67% 30.18 in 10.0 mi NNE 6.9 mph - N/A   Clear
2:35 PM 59.0 °F 48.2 °F 67% 30.17 in 7.0 mi NE 6.9 mph 13.8 mph N/A   Clear
2:55 PM 59.0 °F 48.2 °F 67% 30.17 in 8.0 mi ENE 4.6 mph - N/A   Clear
3:15 PM 59.0 °F 48.2 °F 67% 30.18 in 6.0 mi North 10.4 mph - N/A   Haze
3:35 PM 57.2 °F 51.8 °F 82% 30.18 in 5.0 mi NNE 16.1 mph - N/A   Haze
3:55 PM 57.2 °F 50.0 °F 77% 30.18 in 5.0 mi NNE 13.8 mph - N/A   Haze
4:15 PM 57.2 °F 51.8 °F 82% 30.20 in 5.0 mi NNE 12.7 mph - N/A   Haze
4:35 PM 57.2 °F 50.0 °F 77% 30.21 in - NNE 12.7 mph - N/A   Clear
4:55 PM 57.2 °F 51.8 °F 82% 30.21 in 7.0 mi NNE 11.5 mph - N/A   Partly Cloudy
5:15 PM 57.2 °F 50.0 °F 77% 30.20 in 10.0 mi NE 10.4 mph - N/A   Mostly Cloudy
5:35 PM 57.2 °F 50.0 °F 77% 30.21 in 10.0 mi NNE 13.8 mph - N/A   Mostly Cloudy
5:55 PM 57.2 °F 50.0 °F 77% 30.23 in 10.0 mi NE 10.4 mph - N/A   Overcast
6:15 PM 59.0 °F 50.0 °F 72% 30.23 in 10.0 mi NE 11.5 mph - N/A   Overcast
6:35 PM 57.2 °F 50.0 °F 77% 30.22 in 10.0 mi NE 11.5 mph 17.3 mph N/A   Overcast
6:55 PM 59.0 °F 50.0 °F 72% 30.22 in 10.0 mi NE 12.7 mph - N/A   Mostly Cloudy
7:15 PM 59.0 °F 48.2 °F 67% 30.23 in 10.0 mi NNE 12.7 mph - N/A   Scattered Clouds
7:35 PM 59.0 °F 48.2 °F 67% 30.22 in 10.0 mi NE 12.7 mph - N/A   Scattered Clouds
7:55 PM 59.0 °F 50.0 °F 72% 30.24 in 10.0 mi NE 13.8 mph - N/A   Scattered Clouds
8:15 PM 59.0 °F 48.2 °F 67% 30.27 in 10.0 mi North 13.8 mph - N/A   Mostly Cloudy
8:35 PM 59.0 °F 48.2 °F 67% 30.28 in 10.0 mi North 12.7 mph - N/A   Overcast
8:55 PM 57.2 °F 48.2 °F 72% 30.29 in 9.0 mi North 10.4 mph - N/A   Mostly Cloudy
9:15 PM 59.0 °F 48.2 °F 67% 30.31 in 10.0 mi North 13.8 mph - N/A   Overcast
9:35 PM 59.0 °F 48.2 °F 67% 30.30 in 10.0 mi North 15.0 mph - N/A   Mostly Cloudy
9:55 PM 57.2 °F 48.2 °F 72% 30.30 in 10.0 mi NNE 13.8 mph - N/A   Partly Cloudy
10:15 PM 57.2 °F 50.0 °F 77% 30.30 in 10.0 mi NNE 13.8 mph - N/A   Partly Cloudy
10:35 PM 57.2 °F 50.0 °F 77% 30.31 in 10.0 mi North 17.3 mph - N/A   Scattered Clouds
10:55 PM 57.2 °F 50.0 °F 77% 30.31 in 10.0 mi NNE 13.8 mph - N/A   Mostly Cloudy
11:15 PM 57.2 °F 50.0 °F 77% 30.31 in 10.0 mi NNE 15.0 mph - N/A   Scattered Clouds
11:35 PM 55.4 °F 48.2 °F 77% 30.30 in 9.0 mi North 17.3 mph - N/A   Scattered Clouds
11:55 PM 55.4 °F 50.0 °F 82% 30.30 in 9.0 mi NNE 18.4 mph - N/A   Mostly Cloudy